Terminal Aerodrome Forecast
Issued by NWS

Home | Current Version | Previous Version | Graphics & Text | Print | Product List | Glossary On
Versions: 1 2 3 4 5 6 7 8 9 10 11 12 13 14 15 16 17 18 19
000
FTUS43 KABR 200400 AAA
TAFPIR
TAF AMD
KPIR 200438Z 2005/2024 12009KT P6SM VCTS SCT050CB BKN250
     FM201200 13010KT P6SM BKN250 PROB30 2018/2024 -TSRA OVC050CB=

USA.gov is the U.S. government's official web portal to all federal, state and local government web resources and services.